Skip Page Navigation
NASA JPL Caltech
NASA Logo - Jet Propulsion Laboratory + View the NASA Portal
+ Near-Earth Object (NEO) Program
Search JPL
JPL Home Earth Solar System Stars & Galaxies Technology
JPL Solar System Dynamics
BODIES ORBITS EPHEMERIDES TOOLS PHYSICAL DATA DISCOVERY FAQ SITE MAP
JPL Small-Body Database Browser
Search: [ help ]  
7185 (1991 VN1)
Classification: Main-belt Asteroid          SPK-ID: 2007185
Ephemeris | Orbit Diagram | Orbital Elements | Physical Parameters | Discovery Circumstances | Close-Approach Data ]

[ show orbit diagram ]
Orbital Elements at Epoch 2457000.5 (2014-Dec-09.0) TDB
Reference: JPL 7 (heliocentric ecliptic J2000)
 Element Value Uncertainty (1-sigma)   Units 
e .09690714098068996 6.1227e-08  
a 2.195042167430217 1.4101e-08 AU
q 1.982326906652498 1.3062e-07 AU
i 5.708693016081292 6.2519e-06 deg
node 115.1239306349199 5.6862e-05 deg
peri 137.7467783737355 6.5946e-05 deg
M 176.1846075140019 3.8054e-05 deg
tp 2456419.162697910832
(2013-May-06.66269791)
0.00012266 JED
period 1187.853080385971
3.25
1.1446e-05
3.134e-08
d
yr
n .3030677833348082 2.9204e-09 deg/d
Q 2.407757428207936 1.5468e-08 AU
  Orbit Determination Parameters
   # obs. used (total)      1117  
   data-arc span      12733 days (34.86 yr)  
   first obs. used      1980-03-15  
   last obs. used      2015-01-24  
   planetary ephem.      DE431  
   SB-pert. ephem.      SB431-BIG16  
   condition code      0  
   fit RMS      .52633  
   data source      ORB  
   producer      Otto Matic  
   solution date      2015-Feb-04 13:19:10  

Additional Information
 Earth MOID = .97324 AU 
 T_jup = 3.657 
[ show covariance matrix ]

Ephemeris | Orbit Diagram | Orbital Elements | Physical Parameters | Discovery Circumstances | Close-Approach Data ]

Physical Parameter Table
Parameter Symbol Value Units Sigma Reference Notes
absolute magnitude H 13.7 mag n/a MPO324374  

7185 (1991 VN1)          Discovered 1991-Nov-04 by Ueda, S., Kaneda, H. at Kushiro (399)
Reference: DISCOVERY.DBLast Updated: 2003-08-29

[ show close-approach data ]
Alternate Designations
 1991 VN1 = 1980 EE1 = 1993 DF1 
Ephemeris | Orbit Diagram | Orbital Elements | Physical Parameters | Discovery Circumstances | Close-Approach Data ]
ABOUT SSD CREDITS/AWARDS PRIVACY/COPYRIGHT GLOSSARY LINKS
FirstGov 2015-Mar-01 04:29 UT
(server date/time)  
NASA Home Page
Site Manager:   Ryan S. Park
Webmaster  Alan B. Chamberlin